Location: Newark
(35.8833°N, 14.5000°E)
Time: 11:15:35
(UTC+00:00)

Tiros 1 despin weight - Visible Passes

Search period start: 20 November 2019 00:00
Search period end: 30 November 2019 00:00
Orbit: 594 x 642 km, 48.2° (Epoch: 20 November)

Date Brightness Start Highest point End Pass type
(mag) Time Alt. Az. Time Alt. Az. Time Alt. Az.
20 Nov ? 16:17:55 10° NW 16:21:44 27° NNE 16:25:34 10° E visible
20 Nov ? 17:59:08 10° WNW 18:03:04 65° W 18:03:04 65° W visible
21 Nov ? 16:34:19 10° NW 16:38:33 41° NNE 16:42:33 12° E visible
21 Nov ? 18:15:56 10° WNW 18:19:40 36° WSW 18:19:40 36° WSW visible
22 Nov ? 16:50:46 10° NW 16:55:14 73° NE 16:59:26 12° ESE visible
22 Nov ? 18:33:20 10° W 18:36:24 18° SW 18:36:35 18° SW visible
23 Nov ? 17:07:23 10° WNW 17:11:46 57° SW 17:16:13 10° SE visible
24 Nov ? 17:24:22 10° WNW 17:28:10 27° SW 17:32:00 10° SSE visible
25 Nov ? 17:42:26 10° WSW 17:44:26 13° SW 17:46:28 10° SSW visible
26 Nov ? 16:15:42 10° WNW 16:19:53 41° SW 16:24:08 10° SSE visible
27 Nov ? 16:32:59 10° W 16:36:14 20° SW 16:39:30 10° S visible
